Wind_Speed
13 13 14 14 14 14 15 15 15 16 16 17 17 18 18 19 19 20 21 21 22 22 23 24 24 25 26 26 27 28 29 29 30 30 31 31 33 34 36 37 38 38 38 39 40 41 41 41 41 39 39 38 38 36 35 35 34 33 32 31 31 31 30 28 26 24 22 22 23 22 19 18 17 16 15 14 13 14 14 15 17 17 16 18 20 21 24 26
15 14 14 15 15 15 16 16 16 17 17 18 18 19 19 20 21 21 22 22 23 24 24 25 26 26 27 27 28 28 29 29 29 30 30 30 31 32 34 36 37 38 38 38 39 40 42 42 42 41 40 40 39 39 38 37 37 35 34 33 32 32 31 30 29 26 24 23 24 24 21 18 16 16 15 14 14 14 14 15 17 18 17 18 19 21 23 24
16 16 16 16 16 16 17 17 17 18 18 19 19 20 20 21 22 23 23 24 25 25 26 27 27 28 29 29 29 30 30 30 30 30 31 31 31 31 32 34 36 37 38 38 38 39 40 42 43 42 41 41 41 40 40 40 38 37 35 34 33 33 33 32 31 29 26 24 24 24 22 19 17 16 15 14 14 13 14 15 17 18 17 18 19 21 22 23
18 17 17 17 17 17 18 18 19 19 19 20 20 21 22 23 23 24 25 26 27 27 28 28 29 30 30 31 31 32 32 31 32 32 32 32 32 32 32 33 34 36 37 38 38 38 39 41 42 43 42 42 42 42 42 41 40 38 37 36 35 34 34 33 32 30 28 26 25 25 23 20 18 17 16 15 14 13 13 15 16 17 17 18 19 21 22 24
19 19 19 19 19 19 19 20 20 20 21 21 22 23 23 24 25 26 27 28 28 29 30 30 31 31 32 32 33 33 33 33 34 34 34 34 34 34 33 33 34 35 36 37 37 37 38 40 41 43 43 42 43 44 43 42 41 40 39 38 38 36 35 34 33 31 30 27 26 26 25 23 20 18 18 16 15 14 14 15 16 16 18 19 19 21 23 24
20 20 20 20 20 21 21 21 22 22 23 23 24 24 25 26 27 28 28 29 30 31 32 32 33 33 33 34 34 34 34 34 35 35 35 35 35 35 35 35 35 35 35 35 36 36 37 39 40 42 43 43 43 44 44 43 42 42 42 41 39 38 36 35 34 32 31 29 28 27 27 25 23 21 20 18 17 18 18 18 18 17 17 19 20 22 22 24
22 21 21 22 22 22 23 23 23 24 24 25 25 26 27 27 28 29 30 31 31 32 33 34 34 34 35 35 36 36 35 35 35 35 35 35 35 36 36 37 36 36 36 36 35 35 36 38 40 42 43 43 43 43 44 44 43 43 43 42 41 40 38 36 35 33 32 31 30 29 29 28 27 25 24 22 23 23 22 21 20 18 16 18 21 22 22 25
23 23 23 24 24 24 24 25 25 25 25 26 27 27 28 29 30 30 31 32 33 34 35 35 35 35 35 36 37 36 36 36 35 35 35 34 34 35 36 37 37 38 37 37 36 36 37 38 40 41 42 42 42 42 44 44 44 44 44 44 43 41 40 38 37 35 33 32 31 31 31 30 29 29 27 26 27 25 24 22 21 19 17 18 21 22 22 25
25 25 25 25 25 26 26 26 26 26 27 28 28 29 29 30 31 31 32 34 35 36 36 36 36 36 36 36 37 36 36 36 35 34 34 34 33 33 34 35 37 38 38 38 37 38 39 39 39 38 38 40 41 42 43 44 44 44 45 45 44 43 42 40 39 37 35 33 32 32 32 32 31 30 29 27 26 26 25 23 21 20 17 18 21 21 22 25
26 26 26 27 27 27 27 27 28 28 29 29 30 30 31 31 32 32 33 35 36 37 37 37 37 36 36 36 37 36 35 35 34 34 34 33 33 33 33 34 35 37 38 38 39 40 40 40 38 37 36 38 40 42 43 43 44 44 45 46 45 44 43 42 41 39 37 35 34 33 33 33 33 31 29 27 25 25 26 24 21 21 18 17 19 21 22 25
27 27 28 28 28 28 28 29 29 29 30 30 31 31 32 32 32 33 34 35 36 37 38 38 37 36 36 36 36 36 35 34 33 33 32 32 32 32 32 33 34 35 37 38 39 40 40 40 39 37 36 38 40 41 42 42 43 44 45 45 45 45 44 44 42 41 39 37 35 34 34 34 34 32 30 27 25 26 27 25 23 22 20 18 19 21 23 25
28 28 29 29 29 29 29 30 30 30 31 31 32 33 33 33 33 34 34 35 36 37 38 38 37 36 36 35 35 35 35 33 33 32 31 31 31 31 32 32 33 34 35 37 38 39 40 40 39 38 38 39 39 40 41 42 43 43 44 44 45 45 45 45 44 42 41 39 37 35 35 35 34 33 32 28 26 26 27 26 25 24 22 19 19 21 24 26
29 29 30 30 30 30 31 31 31 31 31 32 33 34 34 34 34 34 34 35 36 37 37 37 37 37 36 34 34 34 34 33 32 32 31 30 30 31 31 32 32 33 34 35 37 38 39 40 39 39 40 40 40 41 41 42 42 42 42 43 44 45 45 45 45 44 42 40 38 37 36 36 34 33 33 29 26 26 26 26 26 26 23 20 20 22 24 25
30 30 30 31 31 31 32 32 32 32 32 33 34 34 34 34 34 34 34 35 36 37 37 37 37 37 36 34 33 32 32 32 32 32 31 30 30 30 30 31 32 33 33 35 36 37 37 38 39 39 41 42 42 42 42 42 41 41 40 41 43 44 45 45 45 45 44 42 40 38 37 36 35 34 33 29 26 24 24 26 28 28 24 22 22 22 24 25
30 31 31 32 32 32 32 32 32 33 33 33 34 35 35 34 34 34 35 35 36 37 37 37 36 36 35 35 34 32 31 31 31 31 31 30 29 29 29 30 31 32 33 34 35 36 36 37 38 39 41 43 43 43 43 43 41 40 39 40 41 43 44 45 45 45 44 43 42 40 39 37 36 35 33 30 26 22 23 26 28 28 26 24 23 21 24 26
31 31 32 32 33 33 33 33 33 33 33 34 34 35 35 35 35 35 35 35 36 36 36 36 35 35 35 35 34 32 31 31 31 31 30 30 29 28 28 29 30 30 32 33 34 35 35 36 38 39 41 42 43 43 44 43 42 40 39 40 41 42 43 44 44 45 45 45 44 42 40 39 37 35 34 32 27 23 24 26 26 25 25 23 22 22 24 26
31 32 32 33 33 33 33 33 33 33 34 34 35 35 35 35 36 36 36 36 36 36 36 35 35 34 34 35 34 33 32 31 30 30 30 29 28 28 28 28 28 29 30 32 33 34 34 36 37 39 41 42 43 43 44 43 42 41 40 40 41 41 42 42 43 44 46 45 44 43 42 40 38 36 34 33 30 26 26 26 24 23 24 23 23 24 26 27
32 32 33 33 33 34 34 34 34 34 34 35 35 35 36 36 36 36 36 36 36 36 36 35 34 33 34 34 34 33 32 31 30 30 29 28 28 27 27 27 27 28 29 30 31 32 33 35 36 38 40 41 42 43 44 43 42 43 42 42 41 41 41 41 42 43 45 45 45 44 43 41 39 36 34 32 31 29 28 27 26 26 25 25 26 28 28 28
32 33 33 33 34 34 34 34 34 35 35 35 36 36 36 36 36 37 37 37 37 36 36 35 34 33 33 33 33 33 32 31 31 30 29 28 27 27 26 26 26 27 28 29 30 31 32 33 35 37 39 40 41 42 43 43 44 45 44 43 42 41 41 41 41 42 43 44 45 44 43 42 39 37 35 32 31 30 28 28 29 30 30 28 28 30 28 28
32 33 34 34 34 34 35 34 35 35 35 36 36 36 36 36 37 37 37 37 37 37 36 35 34 33 33 33 32 32 31 31 30 29 28 27 26 26 26 25 25 26 27 28 29 29 30 30 32 35 37 39 40 41 43 44 45 46 45 43 42 42 41 40 40 41 42 43 44 45 44 42 40 38 36 33 31 28 27 28 31 33 33 31 30 30 28 27
32 33 34 34 34 35 35 35 35 35 36 36 36 36 36 37 37 37 37 37 38 37 37 36 34 32 32 33 32 31 31 30 29 29 28 27 26 25 25 24 24 26 27 27 28 28 28 28 29 32 34 37 39 41 42 44 45 46 45 45 44 43 42 41 40 41 42 43 44 44 44 42 40 39 37 34 31 26 25 28 31 33 34 33 31 30 28 26
31 32 33 34 34 35 35 35 35 36 36 36 36 36 37 37 37 37 37 37 38 38 37 36 35 33 32 32 32 31 30 30 29 28 27 26 25 24 24 24 24 25 27 27 27 27 26 25 27 29 32 35 37 39 41 43 45 46 46 46 46 44 43 42 41 41 41 42 43 44 44 42 40 39 38 36 32 28 27 27 30 35 36 34 32 31 28 25
31 32 33 34 34 35 35 35 36 37 37 37 36 37 37 37 37 38 38 38 38 38 37 37 35 34 33 32 31 31 30 30 29 28 27 26 24 23 23 23 23 24 25 26 27 26 25 25 25 26 29 31 35 37 40 42 44 45 46 46 46 45 44 42 41 41 41 41 43 43 43 42 41 40 38 37 35 32 28 26 29 36 36 33 32 30 27 23
30 31 33 33 34 35 35 35 36 37 38 37 37 37 38 38 38 38 38 38 38 38 37 37 35 34 33 32 31 31 30 30 29 28 28 26 24 23 22 22 22 23 24 25 26 26 26 25 24 24 25 28 31 35 38 41 43 45 46 46 45 44 43 43 42 41 40 40 41 42 42 42 41 40 39 39 38 35 31 29 34 38 36 31 30 29 26 23
30 30 32 33 34 35 36 36 37 38 38 37 37 37 38 38 38 39 39 39 39 38 38 37 36 34 33 32 32 31 30 29 28 28 27 26 24 23 22 21 21 21 22 23 25 26 26 25 24 24 24 25 27 31 35 39 42 44 45 45 44 43 43 43 42 41 40 39 40 41 41 42 41 40 40 40 41 41 40 39 41 42 38 34 31 29 26 23
29 30 32 33 34 35 35 36 37 38 37 38 38 38 38 38 38 39 39 39 39 39 38 37 36 35 34 33 32 31 30 29 27 27 26 25 24 23 21 21 20 20 20 22 24 25 25 25 25 25 24 24 25 28 31 35 39 41 42 43 43 43 43 43 42 42 41 40 40 40 40 41 41 40 41 41 42 44 46 46 45 43 40 37 33 29 27 24
29 30 31 33 34 35 35 36 37 37 37 38 38 38 38 39 39 39 40 40 40 40 38 38 37 35 34 34 33 31 30 29 27 26 25 25 24 23 21 20 19 19 19 20 22 23 24 25 26 26 25 25 25 26 29 33 36 39 41 42 43 43 44 44 44 44 43 42 41 41 41 41 41 41 41 42 43 45 46 46 46 44 41 38 34 30 28 25
29 30 31 33 34 35 35 36 37 37 37 38 38 38 39 40 40 40 40 41 41 40 39 38 37 35 35 34 33 32 31 30 28 26 25 24 23 23 22 21 19 19 20 21 21 21 22 23 24 26 26 26 26 26 27 29 33 37 41 42 43 43 44 45 45 45 45 44 42 42 42 42 41 41 41 42 43 45 46 46 46 44 42 39 35 31 29 25
29 30 31 33 34 35 35 36 36 37 38 38 38 39 39 40 41 41 42 42 42 41 40 39 37 36 35 34 33 32 31 30 29 27 25 23 23 23 23 22 22 21 22 22 22 21 22 23 24 25 25 26 27 26 26 26 29 34 39 41 43 44 44 45 45 46 46 45 43 43 43 43 42 41 41 42 43 45 45 45 46 45 42 39 36 33 30 27
29 31 32 33 34 35 36 36 36 38 38 39 39 39 39 40 41 42 42 43 43 42 41 40 38 37 36 34 33 32 31 30 29 27 25 23 22 23 24 24 24 24 24 24 23 23 24 25 25 25 25 26 26 27 26 26 27 31 35 39 42 44 45 45 46 46 47 46 44 44 44 44 43 42 42 41 42 44 44 45 46 45 42 40 37 34 31 27
30 31 32 34 34 35 36 37 37 38 39 40 40 40 40 41 42 42 43 43 43 43 42 41 40 38 37 35 34 32 31 29 28 27 24 22 22 22 24 25 26 26 25 24 24 24 24 25 26 26 26 25 25 26 27 27 28 29 31 36 40 43 45 45 46 47 47 46 45 45 45 45 44 43 42 42 42 42 42 44 46 45 43 41 38 35 31 27
31 32 33 34 35 36 37 38 38 39 40 41 40 40 40 41 42 42 42 43 43 43 42 40 39 38 37 36 34 32 30 29 28 26 22 22 22 22 24 25 25 25 25 24 24 24 24 24 24 24 24 25 25 26 28 29 30 30 30 33 37 41 44 46 47 47 47 47 47 46 46 46 44 44 43 42 43 43 41 42 44 44 43 41 39 36 32 27
31 33 34 35 36 36 37 38 38 39 40 40 40 40 40 40 40 40 40 41 42 41 40 39 38 36 36 35 34 32 30 29 29 25 20 20 22 22 24 24 24 24 24 24 25 25 24 24 23 23 23 24 25 27 28 30 31 31 31 32 35 39 42 44 46 47 48 48 47 47 47 46 45 45 44 43 42 43 42 40 42 43 42 42 40 36 32 26
32 32 33 33 34 34 35 35 35 35 35 36 36 36 36 36 37 38 39 40 41 41 40 38 36 35 34 33 32 32 30 29 30 27 20 19 22 23 23 24 24 24 24 24 25 25 24 24 24 24 24 24 25 26 28 29 31 31 32 32 34 36 40 43 46 48 49 48 48 49 49 47 46 46 45 44 42 42 41 41 41 43 42 42 40 35 31 27
29 29 28 28 28 28 28 27 27 28 28 29 29 29 29 29 31 32 33 36 38 39 40 38 36 35 33 32 31 30 30 28 29 28 22 18 21 22 22 24 24 24 23 23 24 24 24 24 25 25 24 24 24 25 27 29 30 32 33 34 34 35 38 42 45 47 49 49 50 51 51 49 48 47 46 45 42 42 42 40 41 42 42 42 39 35 31 28
23 23 22 21 21 22 22 22 23 24 25 26 26 27 26 26 27 27 29 31 33 34 36 36 37 35 32 30 30 29 29 28 28 28 24 19 21 22 22 23 24 23 23 24 24 24 24 24 24 25 25 25 25 26 27 28 30 32 34 35 35 36 38 40 43 46 48 50 51 52 52 50 49 48 47 46 44 43 42 41 41 42 43 41 39 36 34 31
18 20 20 20 20 21 22 23 24 25 26 26 27 27 26 26 26 27 28 29 31 31 32 33 35 34 32 30 28 27 28 27 27 27 25 21 21 23 24 24 24 24 24 24 24 24 24 24 24 25 25 25 26 27 28 29 30 32 33 35 36 37 38 39 42 45 48 50 51 52 52 51 50 50 49 47 46 44 43 42 42 43 43 42 40 38 36 34
17 20 22 22 22 23 23 24 25 26 27 27 27 27 27 27 27 28 29 30 31 31 31 31 32 32 32 30 27 25 26 26 26 26 25 22 22 24 24 24 24 24 24 24 24 24 25 25 24 25 25 26 27 27 28 30 31 33 33 35 36 37 38 40 42 44 47 50 52 52 53 52 52 51 50 49 48 45 44 44 43 44 44 43 41 39 37 35
18 21 23 23 24 24 25 25 26 26 27 27 27 27 28 28 28 29 31 31 31 32 32 31 31 31 31 29 25 24 25 25 26 26 24 23 23 24 24 24 24 23 24 23 24 24 25 25 25 25 25 26 26 27 29 30 31 32 33 35 36 38 39 40 42 44 46 49 52 53 54 54 54 53 52 51 49 47 45 45 44 44 45 44 42 40 38 35
20 21 23 24 25 25 25 26 26 26 26 26 26 27 28 29 29 30 31 31 31 32 32 32 32 32 30 28 24 23 25 25 24 25 25 24 24 25 24 24 23 23 23 23 24 25 25 25 26 26 26 26 27 28 29 30 31 32 33 34 36 39 40 41 43 44 46 48 51 54 55 56 55 55 54 53 51 48 46 46 46 44 45 45 43 41 39 37
23 22 23 25 25 26 27 27 26 26 26 26 26 27 29 29 28 29 30 31 31 32 33 33 32 31 29 26 24 24 25 24 23 24 25 24 24 25 24 23 23 23 24 25 25 25 24 24 24 25 26 27 28 29 30 30 31 32 34 35 37 40 41 43 44 45 47 48 50 53 56 57 57 57 56 54 53 50 48 48 47 45 46 46 44 42 40 38
25 25 25 26 26 27 28 27 26 26 26 26 27 28 29 29 28 27 29 31 31 32 34 34 33 30 26 24 24 24 24 23 22 23 25 25 24 24 23 22 23 25 27 26 25 24 23 23 24 24 26 27 28 29 30 31 32 32 34 35 37 40 42 43 45 46 48 49 50 52 55 58 59 59 58 56 55 53 50 50 50 48 47 47 45 44 42 40
28 27 28 28 28 28 28 27 27 27 27 27 28 29 29 29 27 26 28 31 31 31 33 35 33 29 25 23 22 23 23 23 22 23 24 25 24 23 23 23 24 26 27 26 24 24 23 24 24 24 25 26 27 28 30 31 32 33 34 35 37 39 41 44 46 47 49 50 51 52 54 58 61 61 60 58 57 56 53 53 54 51 48 48 46 45 44 42
30 30 30 29 29 29 28 28 28 29 28 28 29 29 29 29 27 25 28 31 30 30 33 35 33 30 24 22 22 22 22 22 22 21 23 24 24 23 23 23 23 24 26 26 25 25 24 24 24 23 23 25 26 27 29 30 31 33 34 35 36 38 40 42 45 47 49 51 52 53 54 58 61 62 61 60 59 58 56 56 57 54 50 49 48 47 46 44
32 32 32 31 30 30 30 30 31 30 29 29 30 29 29 29 27 26 28 31 31 31 34 34 33 31 24 22 22 21 22 22 21 21 23 24 24 24 23 23 23 24 24 24 25 25 24 23 22 21 21 23 25 26 28 29 30 32 33 35 36 38 40 41 43 45 48 51 53 54 55 58 60 62 63 62 60 61 59 58 60 58 52 50 50 49 48 46
33 33 34 33 32 32 32 32 32 32 31 31 30 30 29 28 27 27 30 31 31 33 34 33 32 31 25 24 23 22 22 22 21 21 23 24 24 24 24 22 22 22 22 22 23 23 21 21 20 20 20 22 23 26 28 28 28 30 31 33 34 36 39 41 42 44 47 50 53 55 57 58 60 62 64 63 62 62 62 61 62 61 56 52 52 52 51 48
35 34 35 35 34 33 34 34 34 34 33 32 31 29 28 28 28 29 31 32 31 32 34 32 30 29 25 24 25 24 23 23 22 22 23 23 23 24 24 21 20 21 21 21 20 18 18 18 19 20 20 21 22 24 25 25 26 28 30 31 33 34 37 39 41 43 45 48 52 56 58 59 61 63 64 65 64 64 64 63 63 64 60 55 54 55 53 51
35 35 36 37 36 36 35 35 36 35 34 33 32 30 29 30 30 30 32 32 31 32 34 32 29 28 25 25 28 26 24 23 23 23 24 23 24 24 23 20 19 20 19 18 16 16 16 16 18 20 20 21 21 21 22 23 25 27 29 30 31 33 35 37 39 41 43 46 50 54 57 59 62 64 64 66 66 67 67 66 65 66 63 58 56 57 56 54
36 36 37 38 39 38 37 37 37 37 35 35 33 31 31 31 31 30 32 33 32 32 35 33 29 28 26 25 28 27 24 24 24 24 24 24 24 23 21 19 19 18 17 15 14 14 15 15 17 20 20 21 21 21 21 23 25 27 29 29 30 32 34 35 37 38 40 43 47 51 55 60 63 65 65 65 67 68 68 68 68 68 66 61 58 58 58 57
37 37 37 38 39 40 39 38 38 38 36 35 35 34 33 32 31 31 32 34 33 32 34 34 30 29 27 25 27 28 25 25 25 25 26 26 24 21 19 19 19 17 16 15 14 14 15 17 18 20 20 21 22 22 22 24 25 27 28 28 29 31 32 33 35 36 38 40 44 48 53 59 63 66 66 66 67 69 70 70 70 70 69 65 60 59 60 59
39 38 39 39 40 40 40 39 39 38 37 37 36 36 34 33 32 32 32 34 34 33 34 34 32 30 28 26 27 29 27 26 26 26 26 26 23 20 20 20 20 18 17 18 17 16 17 18 20 21 21 22 23 24 23 24 25 26 26 26 28 29 30 31 33 35 37 38 41 45 50 57 62 66 67 66 67 70 71 71 71 72 71 68 63 60 60 60
40 40 40 40 40 41 41 40 40 39 38 38 38 36 35 34 34 34 33 34 35 34 34 34 32 31 30 28 27 29 29 26 27 27 27 26 23 21 22 22 20 19 18 20 20 20 20 20 21 22 21 22 24 25 24 24 25 25 24 25 26 27 27 28 30 32 35 37 40 44 49 54 60 65 68 67 67 70 72 73 72 73 73 71 66 61 60 61
Wind_Direction
240 239 240 240 240 241 242 243 245 247 249 251 254 256 258 260 262 263 264 264 265 266 266 267 267 267 267 266 266 265 263 262 261 259 257 255 254 254 254 252 249 247 247 248 248 248 248 247 246 245 245 245 244 244 243 243 243 242 242 242 243 245 246 246 247 247 245 245 250 255 258 262 262 263 273 284 297 307 311 319 323 327 333 338 339 339 345 349
240 240 241 242 242 244 245 246 248 249 252 254 257 260 262 264 265 266 267 268 268 269 269 269 270 270 270 269 269 268 267 266 265 264 261 258 256 254 254 254 252 249 247 246 246 247 247 247 246 245 244 244 244 243 242 242 242 242 242 242 242 244 245 245 245 246 246 247 251 254 257 262 258 258 268 279 291 300 305 315 321 324 333 339 341 339 341 344
241 241 242 243 245 247 248 250 252 254 257 259 261 264 266 268 269 270 271 271 272 272 272 272 272 272 272 272 271 271 270 269 268 267 265 263 259 256 255 255 254 252 249 247 246 246 246 247 246 244 243 243 243 243 242 241 241 241 242 242 242 242 243 244 244 244 245 245 250 253 256 260 257 257 263 272 283 294 302 312 318 322 331 335 334 336 337 338
244 244 245 247 249 250 253 255 256 259 261 264 266 268 270 272 273 274 274 275 275 275 275 275 275 275 275 274 274 273 272 271 270 268 267 266 263 260 257 256 255 254 252 249 247 246 245 245 246 244 243 242 242 241 241 241 241 241 241 242 242 242 242 243 244 243 243 244 247 251 253 256 257 258 260 267 277 289 299 308 315 318 321 324 328 333 333 333
247 248 249 251 253 255 256 258 261 263 265 267 269 271 273 274 275 277 278 278 278 278 279 279 278 278 278 278 277 276 275 274 272 270 268 267 265 262 260 258 256 255 253 251 249 248 246 245 245 244 243 242 241 241 240 240 240 241 240 240 241 241 242 242 243 243 243 243 245 250 252 252 254 256 256 261 271 285 295 303 310 311 311 317 325 329 330 332
250 251 252 254 256 258 259 261 264 266 268 270 271 273 274 276 277 278 279 280 281 281 282 282 282 282 282 282 282 280 279 278 275 273 270 268 265 263 261 259 257 255 254 252 250 249 248 246 245 245 243 241 241 241 240 240 239 240 240 240 240 241 242 242 243 243 243 242 243 247 250 250 250 251 251 253 266 280 288 294 302 305 308 314 321 325 328 330
252 254 255 257 258 260 262 264 265 268 270 272 274 276 277 278 280 281 282 283 284 284 284 284 285 285 286 286 286 285 284 282 279 276 273 269 267 264 262 259 257 255 253 252 250 249 248 247 245 244 243 242 240 241 241 240 239 239 239 239 239 240 241 242 242 242 242 241 241 243 247 249 249 249 249 253 264 277 284 288 294 299 304 310 315 320 325 328
254 256 257 258 260 262 264 266 268 270 272 274 276 278 279 281 282 284 285 286 287 287 287 287 287 288 289 290 289 289 288 285 282 280 276 272 268 265 262 260 257 255 253 251 249 248 247 246 244 243 244 244 242 241 240 240 239 239 239 239 238 239 239 240 241 241 241 241 240 241 245 248 249 251 252 256 267 276 281 284 288 293 298 305 310 315 321 323
255 257 259 260 262 264 266 268 270 272 274 276 278 279 281 282 284 286 288 289 289 289 289 289 290 291 292 292 292 291 290 288 285 283 280 275 271 267 263 261 258 255 253 250 248 246 245 244 244 244 244 245 244 242 240 239 238 238 238 238 238 238 238 239 239 240 240 240 240 241 243 247 249 252 254 259 268 275 278 280 283 287 293 301 305 311 316 319
256 258 260 262 264 266 267 270 272 274 276 277 279 281 283 284 286 288 289 290 290 290 290 291 292 293 294 295 294 292 291 289 287 285 282 278 274 269 265 261 258 256 253 251 247 245 244 244 244 243 243 244 243 242 241 239 238 238 237 237 237 237 237 238 238 239 239 239 239 239 242 245 248 251 254 259 265 271 274 277 279 282 287 295 301 307 312 316
258 260 261 263 265 267 269 270 272 274 277 279 281 283 285 286 288 289 289 290 290 291 292 293 295 296 296 296 296 294 292 290 288 285 282 279 276 272 268 263 259 255 253 251 248 246 244 244 242 241 241 242 242 242 241 239 238 238 237 237 236 236 236 237 238 239 239 239 238 238 240 243 246 250 253 256 259 264 270 274 277 278 282 289 297 303 308 313
260 261 263 264 266 268 269 271 273 276 278 281 283 285 286 287 288 289 290 290 291 292 293 295 297 298 298 298 297 295 293 291 289 286 283 280 277 273 270 266 262 257 254 250 248 246 244 243 241 240 240 240 241 241 241 239 239 238 238 237 236 236 236 236 237 238 238 239 238 238 239 242 244 248 251 253 255 260 268 274 276 277 279 286 293 298 303 309
262 263 265 266 268 270 272 274 276 278 281 283 285 286 287 288 289 289 290 291 292 293 295 297 298 299 299 298 297 297 295 293 290 287 284 281 277 274 270 267 264 260 256 252 249 246 244 242 240 238 238 239 239 239 240 240 239 238 238 238 237 236 236 235 235 236 237 238 238 238 238 241 243 245 248 250 253 259 268 275 277 277 278 283 289 294 300 305
264 266 267 269 271 272 274 276 278 280 282 284 285 287 288 289 290 291 291 292 294 295 297 298 300 300 300 299 298 298 297 295 292 289 286 282 279 275 271 268 264 261 257 254 250 247 244 242 240 237 237 237 237 237 238 239 238 237 237 238 238 237 236 235 234 235 236 237 237 237 237 239 240 243 246 248 251 257 265 273 276 274 276 280 284 290 294 299
265 266 268 270 272 274 276 279 280 282 283 285 286 287 288 290 291 292 293 294 295 296 298 299 300 301 302 301 300 299 298 296 293 291 288 284 280 276 272 268 265 261 258 254 251 248 244 242 239 237 236 236 236 236 237 237 237 236 236 237 237 237 236 235 234 234 235 236 236 237 237 237 238 241 244 245 247 251 257 264 270 273 275 277 279 284 288 293
265 267 269 271 273 276 277 279 281 283 284 285 286 288 289 291 292 293 294 295 296 297 298 300 301 302 303 303 302 301 300 298 295 292 290 286 283 279 274 269 265 261 258 255 252 248 244 241 239 237 236 235 235 235 235 236 236 236 235 236 236 236 236 235 235 234 234 234 235 235 236 236 236 238 241 243 242 243 249 255 264 272 273 273 275 277 282 289
266 268 270 272 274 276 278 280 282 284 285 286 287 289 290 292 293 294 295 296 297 298 299 300 301 302 304 303 303 302 301 299 296 293 291 288 285 281 277 272 267 262 259 256 252 249 244 241 239 237 236 235 234 234 234 234 234 235 235 235 235 235 236 235 235 234 234 233 234 234 235 235 235 235 237 241 240 239 243 248 255 263 265 266 270 272 278 287
266 268 271 273 275 277 279 281 282 284 286 287 288 289 291 292 294 295 295 297 298 298 299 300 301 303 303 303 304 303 302 300 297 295 292 290 287 283 279 274 269 265 261 257 253 250 245 241 238 237 236 235 234 234 234 233 233 233 233 233 233 234 234 234 234 234 234 234 233 233 234 234 234 233 234 238 240 239 241 244 247 251 256 260 265 270 276 284
266 269 271 273 275 277 279 281 283 284 286 287 288 290 291 292 293 294 296 297 298 298 299 300 301 303 303 303 304 303 302 300 298 297 294 291 288 285 280 275 270 266 262 259 255 252 247 242 239 237 236 235 234 233 233 232 231 231 231 231 232 232 233 233 234 234 234 234 233 233 233 233 233 233 233 235 239 240 242 244 243 245 249 254 260 266 273 280
267 269 271 273 275 277 279 281 283 284 286 287 288 290 291 292 293 294 296 298 298 299 299 300 301 303 303 303 303 302 301 300 298 297 295 293 290 286 281 275 271 266 263 259 256 253 249 245 241 238 236 235 234 233 232 232 231 231 230 230 230 231 231 232 233 233 233 233 233 233 233 232 232 231 231 232 235 239 242 244 243 245 250 252 255 262 268 275
267 269 271 273 275 277 279 281 283 284 285 286 288 290 291 292 293 295 296 298 298 299 300 300 301 302 303 303 302 302 301 300 298 297 296 294 291 287 281 276 270 266 262 259 256 254 251 248 244 240 237 235 234 233 232 232 232 231 230 228 228 229 228 229 230 232 232 232 232 232 232 231 231 230 230 230 230 232 238 243 245 247 248 249 253 257 264 272
268 270 272 274 276 278 280 281 283 283 284 286 288 290 291 292 294 295 297 297 298 299 300 301 302 302 302 302 302 302 300 299 297 296 295 294 291 286 280 274 269 264 261 259 257 255 253 251 248 243 239 235 233 232 232 232 232 231 230 228 227 227 227 227 228 230 231 231 231 231 231 230 229 229 228 227 225 223 231 241 245 246 245 245 249 254 261 269
269 271 273 275 276 278 280 281 283 283 285 287 289 290 292 293 295 296 296 297 298 299 300 301 302 302 303 302 302 301 300 299 298 297 296 295 291 285 280 273 266 262 260 258 256 254 252 250 249 246 243 238 235 232 231 231 232 232 231 229 228 227 227 226 226 228 230 231 231 231 230 229 227 227 226 225 221 216 221 229 235 241 243 243 246 252 259 266
270 272 274 275 277 279 280 282 283 284 286 288 290 291 292 294 295 295 296 297 298 298 299 299 300 302 302 302 302 301 300 299 299 298 296 295 291 286 281 273 265 261 259 256 254 252 250 249 248 248 246 243 239 235 232 231 231 232 231 229 227 227 227 227 226 227 229 231 232 231 230 228 226 225 224 223 219 210 209 214 225 236 241 243 247 252 257 266
271 273 275 276 278 279 281 283 283 285 287 289 290 291 292 293 294 295 296 297 297 298 298 299 299 300 301 301 301 300 299 298 297 295 294 294 291 286 281 275 267 261 258 257 254 252 250 249 248 248 247 245 242 238 235 232 232 232 232 231 229 228 228 228 226 226 227 229 231 231 231 228 226 223 222 221 219 213 211 215 225 235 240 244 249 252 258 266
273 274 276 277 279 280 282 283 284 286 288 289 290 291 292 293 294 294 295 296 296 297 298 298 298 299 300 300 299 299 298 295 294 293 291 290 287 283 279 276 269 263 259 257 255 254 252 250 249 247 247 245 243 239 236 233 232 232 232 232 230 228 228 228 226 225 225 227 229 230 230 229 226 223 221 220 219 219 219 223 231 237 241 245 248 252 259 265
275 276 277 279 280 281 283 284 285 287 288 289 290 292 293 293 294 294 294 295 295 295 296 297 297 298 299 298 298 298 297 295 293 292 290 287 284 277 273 272 269 265 261 258 258 258 256 254 251 249 247 245 244 241 238 234 231 230 230 230 229 228 227 227 226 224 224 224 226 227 228 228 226 223 222 220 220 221 223 227 232 237 240 244 247 252 257 261
276 277 278 279 280 281 282 284 285 287 288 289 290 291 292 293 293 293 294 294 294 295 295 295 296 296 297 297 298 298 296 295 294 293 290 287 282 274 267 265 264 263 261 261 261 262 261 258 255 251 248 246 245 244 241 238 234 231 229 228 227 226 226 226 225 225 224 223 224 225 226 226 225 223 222 221 221 222 224 227 231 235 238 242 246 249 253 256
277 278 279 279 280 282 283 284 285 287 288 288 289 290 291 291 292 292 293 293 293 294 294 294 295 295 295 295 296 295 294 294 294 293 290 286 281 274 264 259 258 259 261 263 265 267 267 264 260 255 250 246 245 244 242 240 237 233 230 228 226 226 225 225 225 224 224 222 223 224 225 225 225 223 222 221 222 222 224 227 230 233 235 238 241 243 247 250
279 279 280 280 281 282 283 284 285 285 286 287 288 289 290 290 291 291 292 292 293 293 293 293 294 293 293 293 293 293 293 293 292 291 289 284 278 272 263 258 258 259 262 266 269 270 270 268 265 260 253 248 244 243 242 240 238 236 233 230 228 226 224 224 224 224 223 222 222 223 225 225 225 224 222 221 222 223 222 224 228 231 232 234 237 239 242 245
279 279 280 281 281 282 283 284 285 285 286 287 288 288 289 289 290 290 290 291 291 291 292 292 292 292 292 292 291 291 291 291 290 288 287 284 276 267 260 257 258 261 264 267 269 269 268 267 265 261 256 251 246 242 241 240 239 237 235 232 230 227 225 223 223 224 223 222 221 223 224 225 224 225 223 221 221 222 221 222 226 228 230 232 234 236 238 240
278 279 280 281 282 283 284 284 285 286 287 288 288 289 289 289 289 289 290 290 290 290 290 291 291 292 292 291 291 290 290 289 287 286 286 282 275 265 258 256 258 263 268 271 271 270 269 267 264 261 257 253 247 242 239 237 237 235 233 232 231 229 226 224 223 223 223 222 221 222 223 224 224 225 225 223 222 222 220 221 224 226 227 229 230 232 233 234
280 280 281 282 283 284 284 285 286 287 288 288 289 290 289 289 289 289 290 290 290 290 290 291 292 292 292 292 292 291 290 289 286 285 283 278 272 264 258 257 258 262 266 268 268 268 267 266 263 259 254 250 245 241 239 237 236 235 234 232 230 229 228 225 223 223 222 221 221 222 223 223 223 224 225 224 223 223 221 220 223 225 225 227 228 228 229 228
282 282 282 283 284 285 286 287 288 289 290 291 291 292 292 293 292 291 291 290 289 288 288 289 291 291 291 292 292 290 288 287 285 284 281 273 268 261 256 256 255 257 262 266 268 269 269 267 264 260 255 251 247 242 240 238 238 237 236 234 232 230 229 227 224 222 221 220 220 221 221 221 221 223 224 223 223 224 221 219 221 223 223 225 225 225 225 222
283 284 284 285 286 288 290 291 292 294 294 296 297 300 303 304 301 300 297 293 290 288 286 285 286 287 289 290 289 287 285 283 282 282 280 273 268 261 255 254 254 257 263 268 270 272 272 270 268 265 261 256 252 247 242 239 238 236 235 234 233 231 230 228 226 224 222 220 220 220 220 219 219 220 222 222 221 222 222 219 220 221 222 222 222 220 219 218
283 285 287 289 290 292 294 296 297 298 299 302 304 308 312 313 310 308 305 300 297 294 290 285 281 281 285 287 287 286 283 280 279 280 279 275 269 264 258 257 260 263 267 270 272 273 272 271 270 268 265 261 256 250 246 242 239 237 235 234 233 232 231 229 227 226 224 222 220 221 221 219 218 220 220 221 220 220 221 219 218 220 220 219 218 216 214 214
283 286 289 291 292 293 295 297 297 298 301 304 307 311 313 313 312 311 308 308 307 304 300 293 284 278 278 281 284 284 282 278 276 276 277 273 266 263 261 261 263 268 271 273 275 274 271 269 267 265 264 261 257 253 249 244 241 239 236 234 233 232 232 231 229 226 224 223 221 221 222 220 219 219 219 219 219 219 219 218 217 218 219 217 215 214 213 213
283 285 288 291 291 293 294 295 296 299 303 307 310 312 311 309 309 308 308 310 311 311 309 303 293 281 273 273 279 280 277 274 272 272 273 270 263 259 259 261 264 269 273 274 274 273 272 270 267 265 264 262 260 257 253 249 244 241 238 236 234 232 231 231 230 228 226 224 221 220 221 220 219 219 218 218 218 217 218 218 216 216 218 216 212 211 212 212
281 283 286 288 289 291 293 294 296 301 305 309 311 311 308 307 306 306 307 309 311 313 312 307 299 286 273 269 273 276 272 268 266 267 268 265 260 258 258 260 263 267 271 273 273 273 273 272 271 270 267 265 262 259 257 253 250 246 242 239 237 234 231 230 230 230 228 225 223 221 220 220 219 218 218 217 217 216 216 218 216 213 215 215 210 207 208 207
281 281 282 284 287 290 291 293 298 303 307 309 309 308 307 308 309 309 309 309 310 310 312 311 304 292 277 268 269 272 268 263 261 262 262 259 256 256 257 261 265 269 271 271 271 270 271 273 274 273 271 268 264 260 257 255 253 250 246 243 240 237 233 231 230 229 229 227 224 222 220 219 219 218 217 216 216 215 214 216 216 212 212 214 209 204 205 204
282 281 281 283 286 289 290 294 300 304 305 305 306 306 308 312 317 318 313 310 309 309 310 311 308 298 283 268 264 267 266 261 258 259 259 256 253 255 258 263 268 269 267 267 268 270 272 273 273 274 272 270 267 265 262 258 254 250 246 243 241 239 235 232 229 228 229 228 226 224 221 219 219 218 216 214 214 214 212 213 215 211 209 211 208 202 202 201
282 282 282 284 287 288 291 297 300 299 299 301 303 304 308 314 322 325 318 310 309 309 308 309 309 303 285 265 260 264 265 260 256 256 258 256 253 254 258 263 267 268 270 272 274 276 277 275 272 270 270 269 268 267 266 264 260 256 251 246 242 240 237 234 231 229 228 227 226 225 223 220 219 218 216 214 212 213 211 210 214 212 208 208 206 200 199 199
281 281 282 284 286 289 292 296 295 294 296 298 299 302 307 314 323 328 319 310 308 307 305 306 309 305 285 262 257 262 262 257 252 253 256 255 253 253 257 263 268 272 276 279 280 279 276 273 271 269 269 269 268 268 267 267 265 263 259 254 248 243 239 236 233 231 229 227 225 225 224 222 220 218 217 214 211 211 210 207 211 214 208 206 204 199 197 197
282 281 281 283 285 287 290 290 290 291 294 295 297 301 306 311 320 324 316 309 308 305 302 304 309 307 286 261 254 258 259 254 250 251 255 255 253 253 257 264 269 273 277 280 280 278 275 274 274 274 273 272 271 270 269 267 266 265 262 259 255 250 244 239 235 232 230 228 226 224 224 224 221 218 216 214 211 210 209 205 208 213 210 204 203 198 195 196
283 282 282 282 284 285 286 286 288 291 292 293 295 300 305 309 315 316 310 310 311 306 301 303 310 309 290 262 254 257 257 254 249 249 252 253 253 254 258 264 269 272 276 277 276 276 277 278 279 280 280 279 278 275 271 267 265 264 262 260 257 254 250 245 239 234 230 229 226 224 224 224 222 219 216 214 211 209 208 205 205 211 211 203 201 197 193 194
284 283 282 283 284 284 285 286 288 289 290 292 294 298 303 306 307 306 305 312 317 310 304 303 307 309 294 266 258 259 257 252 248 247 249 250 253 257 260 264 269 272 272 270 270 274 279 282 284 287 287 285 281 276 273 270 267 265 263 261 257 254 252 249 244 238 232 228 226 224 222 223 223 221 216 214 212 209 208 205 203 209 212 205 200 197 193 193
283 283 283 283 284 284 285 286 287 288 288 290 293 296 300 300 300 302 304 311 317 312 305 302 303 307 297 268 257 258 255 250 247 246 247 248 251 258 262 265 268 268 267 268 269 272 278 283 288 291 291 289 286 280 276 273 271 269 266 263 260 256 253 250 247 243 236 230 226 223 221 221 222 222 216 213 211 209 207 206 202 206 211 207 200 196 193 192
282 282 282 282 284 285 286 285 286 287 287 289 291 293 295 295 298 302 303 308 314 310 304 301 300 303 296 270 256 256 254 251 248 247 246 247 249 255 262 265 263 262 264 266 268 271 278 285 289 291 294 296 295 288 279 273 272 272 270 267 264 261 257 253 248 244 239 233 227 223 220 220 221 222 218 212 210 209 207 205 202 203 209 209 201 196 194 192
281 281 280 281 283 284 285 285 285 286 286 287 289 290 291 294 297 300 300 304 309 307 302 300 297 297 295 275 258 256 257 252 249 248 246 244 247 253 259 260 259 260 260 261 267 276 286 292 292 293 297 301 301 294 282 275 274 274 273 270 267 265 262 258 253 247 241 236 230 223 220 219 219 221 220 214 210 209 207 205 202 201 206 209 203 197 195 194
281 280 279 280 281 283 284 284 284 285 285 285 286 288 290 293 295 296 298 301 305 305 301 299 295 293 294 282 262 255 255 251 248 247 245 243 247 252 254 253 254 255 256 261 268 278 287 293 295 296 298 301 302 299 288 279 275 275 274 272 269 267 265 262 257 251 243 237 232 225 220 218 217 219 220 215 210 208 207 205 203 201 203 208 206 199 196 196
281 280 280 279 279 281 282 282 282 284 285 284 285 287 289 291 292 293 296 298 301 303 301 297 294 290 291 286 266 253 252 251 247 246 244 244 247 248 246 246 247 248 255 264 270 275 282 290 295 296 297 298 300 301 296 286 278 277 278 276 274 274 271 266 258 251 244 237 231 226 221 217 216 217 219 217 211 208 207 206 203 201 201 205 207 201 197 196
280 280 279 278 278 279 280 281 282 283 283 283 284 286 287 289 290 291 294 296 298 301 301 296 292 288 287 287 272 254 250 250 247 245 244 243 244 244 242 243 242 245 256 267 274 278 283 287 294 297 297 296 297 302 303 295 285 282 283 282 281 282 278 270 260 251 244 237 231 226 221 216 214 214 216 217 213 208 206 206 204 201 200 203 206 204 198 196
Height
10924 10924 10924 10924 10924 10924 10924 10924 10924 10924 10924 10924 10924 10924 10924 10924 10924 10924 10924 10924 10924 10924 10924 10924 10924 10924 10923 10923 10923 10923 10924 10924 10924 10925 10926 10926 10927 10927 10927 10928 10929 10931 10932 10933 10934 10935 10936 10938 10941 10943 10945 10946 10948 10950 10951 10952 10953 10954 10956 10957 10959 10960 10961 10962 10963 10965 10966 10966 10966 10966 10967 10968 10968 10968 10968 10967 10967 10967 10967 10966 10965 10964 10964 10963 10962 10960 10959 10957
10922 10922 10923 10923 10923 10923 10923 10923 10923 10923 10923 10923 10923 10923 10923 10922 10922 10922 10922 10922 10922 10922 10922 10922 10922 10921 10921 10921 10921 10921 10921 10921 10922 10922 10922 10923 10924 10924 10924 10924 10925 10927 10928 10929 10930 10931 10932 10934 10937 10939 10941 10943 10944 10946 10947 10948 10949 10951 10953 10955 10956 10957 10958 10960 10961 10962 10964 10965 10964 10964 10965 10966 10967 10967 10967 10966 10966 10966 10966 10965 10964 10963 10963 10962 10961 10960 10958 10956
10920 10921 10921 10921 10921 10921 10921 10921 10921 10921 10921 10921 10921 10921 10921 10920 10920 10920 10920 10920 10920 10920 10920 10919 10919 10919 10918 10918 10918 10918 10918 10918 10919 10919 10919 10920 10920 10921 10921 10921 10922 10923 10924 10926 10927 10928 10929 10930 10932 10935 10937 10939 10940 10942 10943 10944 10946 10949 10951 10952 10954 10955 10956 10957 10959 10960 10962 10963 10962 10962 10963 10964 10965 10966 10966 10965 10965 10965 10965 10964 10963 10962 10962 10961 10960 10959 10958 10956
10919 10919 10919 10919 10920 10920 10919 10919 10919 10919 10919 10919 10919 10919 10918 10918 10918 10918 10918 10917 10917 10917 10917 10917 10917 10916 10916 10915 10915 10915 10915 10915 10916 10915 10916 10916 10917 10917 10918 10918 10918 10919 10921 10922 10923 10924 10926 10927 10928 10930 10933 10935 10937 10938 10939 10941 10943 10946 10948 10949 10950 10952 10953 10955 10956 10958 10959 10961 10961 10960 10961 10962 10963 10964 10964 10963 10963 10964 10964 10964 10963 10961 10961 10961 10960 10959 10957 10955
10916 10917 10917 10917 10918 10918 10917 10917 10917 10917 10917 10917 10917 10916 10916 10916 10915 10915 10915 10915 10914 10914 10914 10914 10914 10913 10913 10912 10911 10911 10912 10912 10912 10911 10912 10912 10913 10913 10914 10914 10915 10916 10917 10919 10920 10921 10922 10923 10924 10925 10928 10931 10932 10933 10935 10938 10941 10943 10944 10945 10947 10949 10950 10952 10954 10956 10957 10959 10959 10959 10960 10960 10961 10962 10962 10962 10962 10962 10963 10963 10962 10961 10960 10960 10959 10958 10956 10954
10914 10915 10915 10915 10915 10915 10915 10915 10915 10915 10915 10915 10914 10914 10914 10913 10913 10913 10912 10912 10912 10911 10911 10911 10910 10910 10909 10909 10908 10908 10908 10908 10907 10907 10908 10908 10908 10909 10910 10910 10911 10912 10913 10915 10916 10918 10918 10919 10920 10921 10923 10926 10928 10929 10932 10935 10937 10939 10940 10942 10944 10946 10948 10950 10952 10953 10955 10957 10958 10958 10958 10958 10959 10960 10961 10960 10960 10961 10961 10962 10961 10961 10960 10959 10958 10957 10956 10954
10912 10913 10913 10913 10913 10913 10913 10913 10913 10913 10912 10912 10912 10911 10911 10911 10910 10910 10909 10909 10909 10908 10908 10907 10907 10907 10906 10905 10904 10904 10904 10903 10903 10903 10903 10903 10904 10904 10905 10905 10906 10907 10909 10910 10912 10914 10914 10915 10916 10916 10918 10921 10925 10927 10928 10931 10934 10935 10936 10938 10941 10943 10945 10947 10949 10951 10953 10954 10956 10956 10956 10956 10957 10958 10959 10959 10959 10959 10960 10961 10960 10960 10959 10958 10957 10956 10955 10953
10910 10911 10911 10911 10911 10911 10911 10911 10911 10910 10910 10910 10909 10909 10908 10908 10908 10907 10907 10906 10905 10905 10904 10904 10904 10904 10903 10902 10900 10900 10900 10899 10899 10898 10898 10899 10899 10899 10900 10901 10902 10903 10904 10906 10908 10909 10909 10910 10911 10913 10915 10918 10921 10923 10924 10927 10930 10931 10932 10934 10937 10940 10942 10944 10946 10948 10950 10952 10953 10954 10954 10954 10955 10955 10956 10957 10957 10958 10959 10959 10959 10959 10959 10957 10956 10955 10954 10952
10908 10908 10908 10909 10909 10909 10909 10908 10908 10908 10908 10907 10907 10906 10906 10905 10905 10904 10904 10903 10902 10901 10901 10900 10900 10900 10899 10898 10896 10896 10896 10895 10894 10894 10893 10894 10894 10895 10895 10896 10896 10897 10899 10901 10903 10904 10904 10905 10907 10911 10913 10914 10916 10917 10920 10923 10925 10926 10928 10930 10933 10936 10938 10940 10942 10944 10947 10949 10951 10952 10952 10953 10953 10953 10954 10956 10956 10956 10956 10957 10958 10957 10958 10957 10955 10954 10953 10952
10906 10906 10906 10906 10906 10906 10906 10906 10906 10905 10905 10904 10904 10903 10903 10903 10902 10902 10901 10900 10899 10898 10897 10897 10897 10897 10896 10894 10892 10891 10892 10891 10890 10889 10889 10889 10889 10890 10890 10891 10891 10892 10894 10895 10897 10898 10899 10902 10905 10908 10910 10910 10910 10912 10915 10918 10920 10922 10923 10926 10930 10932 10934 10937 10939 10941 10944 10946 10948 10949 10950 10950 10950 10951 10953 10955 10955 10954 10953 10955 10956 10956 10957 10956 10954 10953 10952 10951
10903 10904 10904 10904 10904 10904 10904 10903 10903 10903 10902 10902 10901 10901 10900 10900 10899 10899 10898 10897 10895 10894 10894 10893 10893 10893 10892 10891 10889 10887 10887 10887 10886 10885 10885 10884 10884 10885 10885 10886 10886 10887 10888 10890 10892 10893 10895 10897 10901 10904 10906 10905 10906 10908 10911 10913 10915 10917 10919 10923 10926 10928 10931 10933 10936 10938 10940 10943 10945 10947 10948 10948 10949 10950 10951 10953 10954 10953 10952 10953 10954 10955 10955 10955 10954 10953 10952 10951
10901 10901 10901 10901 10901 10901 10901 10901 10900 10900 10900 10899 10899 10898 10897 10897 10896 10896 10895 10894 10892 10891 10891 10890 10890 10889 10888 10887 10886 10883 10882 10882 10882 10881 10881 10880 10880 10880 10880 10880 10881 10882 10883 10885 10887 10889 10891 10893 10897 10900 10901 10901 10902 10904 10906 10908 10910 10913 10916 10919 10921 10924 10927 10929 10932 10935 10937 10940 10942 10944 10945 10946 10947 10948 10948 10951 10953 10952 10951 10952 10953 10953 10954 10954 10953 10952 10951 10950
10898 10898 10898 10898 10898 10898 10898 10898 10898 10897 10897 10896 10896 10895 10894 10894 10893 10893 10892 10891 10889 10888 10887 10887 10886 10885 10884 10883 10882 10880 10879 10878 10878 10877 10877 10876 10876 10876 10876 10876 10876 10877 10878 10880 10882 10884 10886 10889 10892 10895 10896 10897 10898 10899 10901 10903 10906 10909 10912 10914 10917 10919 10922 10925 10928 10931 10934 10937 10939 10941 10943 10944 10946 10946 10946 10949 10952 10952 10951 10951 10951 10952 10952 10953 10952 10951 10950 10950
10895 10895 10895 10895 10895 10895 10895 10895 10895 10894 10894 10893 10892 10891 10891 10891 10890 10889 10889 10887 10886 10885 10884 10884 10883 10881 10880 10879 10879 10878 10876 10874 10873 10872 10872 10872 10872 10872 10872 10872 10872 10873 10874 10875 10876 10879 10882 10884 10887 10889 10890 10891 10893 10895 10897 10898 10902 10906 10909 10910 10912 10915 10918 10921 10924 10927 10930 10933 10935 10938 10939 10941 10943 10944 10945 10948 10951 10951 10950 10949 10949 10950 10950 10951 10951 10951 10949 10949
10892 10892 10892 10892 10892 10892 10892 10892 10892 10891 10891 10890 10889 10888 10888 10887 10887 10886 10885 10884 10883 10882 10881 10881 10879 10878 10876 10875 10874 10874 10873 10871 10870 10868 10868 10868 10868 10868 10868 10868 10868 10868 10869 10870 10872 10874 10877 10879 10881 10884 10885 10886 10888 10891 10892 10894 10898 10902 10905 10906 10908 10910 10913 10917 10920 10923 10926 10929 10932 10934 10936 10938 10941 10942 10944 10946 10949 10950 10949 10948 10948 10948 10949 10950 10950 10950 10949 10948
10889 10889 10889 10889 10889 10889 10889 10889 10889 10888 10888 10887 10886 10885 10884 10884 10883 10883 10882 10881 10880 10879 10878 10878 10876 10875 10873 10871 10870 10870 10869 10868 10866 10865 10864 10864 10864 10864 10864 10864 10864 10864 10865 10865 10867 10869 10872 10874 10876 10878 10880 10881 10884 10886 10888 10891 10894 10898 10900 10902 10904 10906 10909 10913 10916 10919 10922 10925 10928 10931 10933 10935 10938 10941 10942 10944 10947 10948 10948 10947 10947 10947 10947 10948 10949 10949 10948 10948
10887 10887 10887 10887 10886 10886 10886 10886 10886 10885 10884 10884 10882 10882 10881 10881 10880 10879 10878 10878 10877 10876 10875 10874 10873 10872 10870 10868 10866 10866 10865 10864 10863 10861 10860 10860 10859 10859 10859 10859 10859 10860 10860 10861 10862 10864 10867 10869 10871 10873 10875 10876 10879 10881 10883 10887 10890 10893 10895 10897 10900 10903 10906 10909 10912 10914 10917 10921 10924 10927 10929 10931 10935 10939 10940 10942 10944 10946 10947 10946 10946 10946 10945 10946 10947 10948 10948 10948
10884 10884 10884 10884 10884 10883 10883 10883 10883 10882 10881 10880 10879 10879 10878 10877 10877 10876 10875 10874 10873 10872 10872 10871 10870 10869 10867 10865 10863 10862 10861 10860 10859 10858 10856 10856 10856 10855 10855 10855 10855 10855 10856 10856 10858 10859 10862 10864 10866 10868 10870 10872 10874 10876 10879 10883 10886 10887 10890 10893 10896 10899 10902 10905 10908 10910 10913 10917 10920 10923 10925 10928 10932 10936 10939 10940 10942 10943 10945 10945 10945 10944 10944 10945 10946 10946 10947 10947
10882 10882 10881 10881 10881 10881 10880 10880 10880 10879 10878 10877 10876 10876 10875 10874 10873 10872 10871 10870 10869 10868 10868 10867 10867 10866 10864 10862 10861 10859 10857 10856 10855 10854 10853 10853 10852 10852 10852 10852 10852 10852 10852 10852 10853 10855 10857 10859 10862 10864 10865 10868 10870 10872 10875 10878 10879 10881 10885 10888 10892 10895 10898 10901 10904 10907 10909 10912 10915 10919 10922 10925 10929 10933 10936 10938 10939 10941 10942 10943 10942 10942 10942 10944 10945 10945 10946 10947
10879 10879 10879 10878 10878 10878 10878 10877 10877 10876 10875 10874 10873 10873 10872 10871 10870 10869 10868 10867 10865 10864 10864 10863 10864 10863 10861 10859 10858 10856 10855 10853 10852 10851 10850 10849 10849 10848 10848 10848 10848 10848 10848 10848 10849 10851 10853 10855 10857 10859 10861 10864 10866 10868 10870 10872 10874 10876 10880 10884 10887 10890 10894 10897 10900 10903 10905 10908 10911 10915 10918 10922 10926 10930 10933 10936 10937 10938 10939 10939 10940 10939 10940 10942 10943 10944 10946 10946
10876 10876 10876 10876 10875 10875 10875 10874 10874 10873 10872 10871 10870 10870 10869 10868 10867 10866 10865 10863 10861 10860 10860 10859 10860 10860 10858 10856 10854 10853 10851 10850 10849 10847 10847 10846 10846 10845 10845 10845 10845 10844 10844 10845 10846 10847 10849 10851 10853 10855 10857 10859 10861 10863 10866 10867 10869 10872 10875 10879 10882 10886 10889 10893 10896 10899 10901 10904 10907 10911 10914 10919 10923 10927 10930 10933 10935 10936 10936 10936 10937 10937 10938 10941 10942 10943 10944 10945
10873 10873 10873 10872 10872 10872 10871 10871 10870 10869 10868 10868 10867 10866 10865 10864 10863 10862 10861 10860 10858 10856 10855 10855 10855 10855 10854 10853 10851 10849 10848 10846 10845 10844 10844 10843 10843 10842 10842 10841 10841 10841 10841 10841 10843 10844 10846 10848 10850 10851 10853 10855 10857 10859 10861 10863 10865 10867 10871 10874 10878 10882 10885 10889 10892 10894 10897 10900 10903 10907 10911 10915 10920 10923 10927 10930 10932 10933 10933 10934 10935 10935 10936 10939 10941 10942 10943 10945
10870 10870 10869 10869 10869 10868 10868 10868 10867 10865 10865 10865 10865 10863 10862 10861 10860 10858 10857 10856 10855 10853 10852 10851 10851 10850 10850 10849 10847 10846 10844 10843 10842 10841 10840 10840 10839 10839 10839 10838 10838 10838 10838 10839 10840 10841 10843 10845 10846 10847 10849 10851 10853 10855 10857 10859 10861 10863 10866 10870 10874 10878 10882 10886 10889 10891 10894 10897 10900 10903 10907 10912 10916 10920 10923 10926 10929 10931 10932 10933 10932 10932 10933 10937 10939 10941 10943 10944
10867 10867 10866 10866 10866 10865 10864 10864 10863 10862 10861 10861 10861 10860 10858 10857 10856 10855 10853 10852 10851 10850 10849 10848 10848 10847 10846 10845 10843 10842 10841 10840 10839 10837 10836 10836 10836 10835 10835 10835 10835 10835 10835 10836 10837 10838 10840 10841 10843 10844 10846 10848 10849 10851 10853 10855 10857 10859 10861 10865 10871 10875 10879 10882 10886 10888 10891 10894 10897 10900 10904 10908 10913 10916 10919 10922 10925 10927 10929 10929 10929 10929 10932 10935 10938 10940 10941 10943
10864 10864 10863 10862 10862 10861 10861 10860 10859 10858 10858 10858 10857 10856 10855 10854 10853 10851 10850 10849 10847 10846 10845 10845 10844 10844 10843 10841 10840 10838 10837 10836 10836 10834 10834 10833 10833 10832 10832 10832 10832 10832 10832 10833 10834 10835 10837 10839 10840 10842 10843 10844 10846 10848 10850 10852 10854 10856 10859 10863 10868 10872 10875 10878 10882 10885 10888 10891 10893 10896 10900 10904 10908 10912 10915 10918 10921 10922 10923 10924 10924 10926 10930 10933 10936 10938 10940 10942
10860 10860 10860 10859 10858 10858 10857 10856 10855 10855 10855 10854 10854 10853 10851 10850 10849 10847 10846 10845 10844 10842 10842 10841 10840 10840 10839 10837 10836 10835 10834 10833 10832 10832 10831 10830 10830 10829 10829 10829 10829 10829 10830 10830 10830 10832 10834 10836 10837 10838 10840 10841 10842 10843 10845 10848 10850 10853 10856 10860 10864 10868 10870 10873 10877 10880 10884 10886 10889 10892 10896 10899 10904 10908 10911 10914 10916 10918 10919 10920 10922 10925 10928 10931 10934 10936 10939 10941
10857 10857 10856 10855 10854 10854 10854 10853 10852 10851 10851 10850 10850 10849 10848 10846 10845 10844 10842 10841 10840 10839 10839 10837 10837 10837 10835 10834 10832 10832 10830 10829 10829 10828 10828 10828 10827 10827 10827 10826 10826 10827 10827 10827 10828 10829 10831 10832 10834 10835 10837 10838 10839 10840 10842 10844 10847 10849 10851 10854 10858 10862 10865 10868 10871 10875 10878 10881 10884 10887 10891 10894 10899 10903 10906 10909 10912 10914 10917 10919 10921 10924 10927 10930 10933 10935 10937 10939
10853 10853 10853 10852 10851 10850 10850 10849 10848 10848 10847 10846 10846 10845 10844 10842 10841 10839 10838 10837 10835 10835 10835 10834 10833 10833 10831 10830 10829 10828 10826 10825 10825 10825 10824 10824 10824 10824 10824 10824 10824 10824 10824 10825 10826 10827 10828 10829 10830 10832 10833 10835 10836 10837 10839 10841 10843 10845 10847 10849 10853 10856 10860 10863 10866 10870 10873 10876 10880 10883 10886 10889 10894 10898 10902 10905 10908 10911 10914 10917 10919 10922 10925 10928 10931 10934 10936 10938
10850 10849 10849 10848 10847 10846 10846 10845 10845 10844 10843 10842 10842 10841 10840 10839 10837 10835 10834 10832 10831 10831 10830 10829 10829 10828 10827 10826 10825 10824 10823 10822 10821 10821 10821 10821 10820 10820 10821 10821 10822 10822 10822 10822 10823 10825 10825 10826 10827 10828 10829 10831 10833 10834 10836 10838 10840 10841 10843 10845 10848 10851 10854 10858 10861 10865 10868 10872 10876 10878 10881 10885 10889 10893 10897 10901 10904 10907 10911 10914 10917 10920 10923 10926 10929 10931 10934 10936
10846 10845 10845 10844 10843 10842 10842 10841 10841 10840 10839 10838 10838 10837 10837 10835 10833 10831 10829 10828 10827 10826 10825 10825 10824 10824 10823 10822 10821 10820 10820 10819 10818 10818 10818 10818 10817 10817 10817 10818 10818 10818 10819 10819 10821 10822 10823 10823 10823 10824 10826 10827 10829 10831 10833 10835 10836 10837 10839 10841 10844 10846 10850 10853 10857 10860 10863 10868 10872 10874 10877 10881 10885 10888 10892 10896 10900 10903 10908 10911 10913 10916 10921 10924 10927 10930 10932 10935
10842 10841 10841 10840 10839 10839 10838 10837 10837 10836 10835 10834 10834 10833 10833 10831 10829 10827 10825 10823 10822 10821 10820 10820 10819 10819 10818 10818 10817 10817 10816 10816 10815 10814 10814 10814 10814 10813 10813 10814 10814 10815 10816 10817 10818 10819 10819 10820 10820 10821 10822 10824 10826 10828 10830 10831 10832 10834 10836 10837 10839 10842 10845 10849 10852 10855 10859 10864 10868 10870 10873 10877 10881 10884 10888 10892 10895 10899 10903 10907 10910 10913 10918 10921 10925 10928 10931 10934
10838 10837 10837 10836 10835 10835 10834 10834 10833 10832 10831 10830 10830 10829 10828 10827 10825 10823 10821 10819 10817 10816 10816 10816 10815 10814 10813 10813 10813 10812 10812 10812 10811 10811 10811 10811 10810 10810 10810 10810 10811 10812 10813 10814 10815 10815 10815 10816 10817 10818 10819 10821 10823 10824 10825 10826 10828 10829 10831 10833 10835 10837 10841 10844 10848 10851 10855 10860 10863 10866 10869 10873 10878 10881 10884 10888 10891 10895 10900 10904 10907 10911 10915 10919 10922 10926 10929 10933
10834 10834 10833 10832 10832 10831 10830 10830 10829 10828 10827 10826 10825 10825 10824 10823 10821 10819 10818 10815 10813 10812 10811 10811 10811 10810 10809 10808 10808 10808 10808 10807 10806 10807 10809 10808 10806 10806 10807 10807 10809 10809 10810 10810 10810 10811 10812 10812 10813 10815 10816 10817 10818 10820 10821 10822 10824 10826 10828 10829 10831 10833 10836 10839 10843 10847 10851 10855 10859 10862 10865 10870 10874 10877 10880 10884 10888 10892 10897 10901 10904 10907 10912 10915 10919 10924 10928 10931
10830 10830 10829 10829 10828 10827 10827 10826 10825 10824 10823 10822 10821 10820 10819 10818 10817 10815 10814 10811 10809 10808 10807 10807 10807 10806 10806 10805 10804 10803 10803 10803 10801 10803 10805 10805 10803 10803 10804 10804 10806 10806 10807 10807 10807 10808 10809 10809 10810 10811 10812 10813 10815 10817 10818 10820 10821 10823 10825 10826 10828 10830 10832 10834 10838 10841 10845 10850 10853 10856 10859 10865 10869 10872 10876 10881 10885 10889 10893 10897 10900 10904 10908 10912 10916 10922 10926 10929
10827 10826 10825 10825 10824 10824 10823 10822 10821 10820 10819 10818 10817 10816 10816 10815 10813 10812 10810 10807 10805 10803 10803 10803 10803 10802 10802 10802 10801 10800 10799 10799 10798 10798 10801 10802 10800 10800 10801 10801 10802 10803 10804 10804 10804 10805 10805 10806 10806 10807 10809 10811 10812 10813 10815 10816 10818 10819 10820 10822 10824 10826 10828 10830 10833 10837 10842 10846 10848 10850 10853 10859 10864 10867 10871 10876 10881 10885 10889 10894 10897 10900 10904 10908 10914 10919 10922 10925
10824 10823 10822 10822 10821 10821 10820 10819 10818 10817 10816 10815 10814 10813 10812 10811 10810 10808 10806 10804 10801 10800 10798 10798 10798 10798 10799 10798 10797 10796 10795 10795 10795 10794 10796 10798 10797 10796 10797 10797 10798 10799 10801 10801 10802 10802 10802 10803 10803 10803 10805 10806 10808 10809 10811 10812 10814 10814 10816 10818 10820 10822 10824 10827 10830 10833 10837 10841 10844 10846 10850 10856 10860 10863 10867 10872 10877 10882 10886 10890 10893 10896 10900 10905 10910 10914 10918 10921
10822 10820 10820 10819 10819 10818 10817 10816 10815 10814 10813 10812 10811 10810 10809 10808 10806 10805 10802 10800 10798 10797 10795 10794 10793 10794 10795 10795 10794 10793 10792 10792 10792 10791 10792 10793 10793 10793 10793 10794 10795 10796 10797 10798 10798 10798 10799 10799 10800 10800 10801 10802 10803 10804 10806 10808 10809 10810 10812 10814 10816 10819 10821 10823 10825 10828 10831 10835 10839 10843 10847 10852 10856 10859 10863 10868 10872 10878 10882 10886 10889 10892 10896 10901 10906 10911 10915 10918
10820 10818 10817 10816 10816 10815 10814 10813 10812 10811 10810 10809 10808 10807 10806 10805 10803 10801 10799 10797 10795 10793 10792 10791 10789 10789 10789 10791 10791 10791 10789 10788 10788 10788 10788 10790 10790 10790 10790 10791 10792 10793 10794 10794 10794 10794 10794 10795 10796 10797 10797 10798 10799 10800 10801 10802 10804 10806 10808 10810 10812 10814 10817 10819 10821 10823 10826 10829 10834 10838 10842 10847 10851 10854 10859 10863 10868 10874 10878 10881 10884 10887 10891 10896 10902 10907 10911 10916
10817 10816 10815 10814 10813 10812 10811 10810 10809 10808 10807 10806 10805 10804 10802 10801 10800 10798 10796 10794 10792 10790 10789 10787 10785 10784 10784 10786 10788 10787 10786 10785 10785 10785 10785 10786 10786 10786 10787 10788 10789 10790 10790 10790 10791 10791 10791 10791 10792 10793 10794 10795 10795 10796 10797 10797 10799 10801 10804 10806 10807 10809 10812 10814 10816 10818 10821 10824 10828 10832 10836 10841 10845 10850 10855 10859 10864 10870 10873 10876 10879 10883 10887 10892 10898 10903 10908 10912
10814 10813 10812 10811 10809 10809 10808 10807 10806 10805 10804 10803 10802 10800 10799 10798 10797 10796 10793 10791 10789 10787 10785 10784 10781 10780 10780 10782 10784 10783 10782 10782 10782 10782 10782 10783 10783 10783 10784 10785 10785 10786 10786 10787 10787 10787 10788 10788 10788 10789 10790 10791 10791 10792 10792 10793 10795 10796 10798 10800 10802 10804 10806 10808 10811 10813 10816 10819 10823 10827 10831 10835 10839 10844 10850 10855 10860 10865 10869 10871 10874 10879 10883 10887 10894 10899 10904 10908
10810 10810 10809 10807 10807 10806 10805 10804 10804 10802 10801 10800 10798 10796 10795 10795 10794 10793 10790 10788 10786 10784 10782 10780 10778 10776 10776 10778 10779 10779 10779 10779 10779 10779 10778 10779 10780 10780 10781 10782 10781 10781 10782 10783 10783 10784 10785 10786 10786 10786 10786 10786 10786 10787 10787 10789 10790 10791 10793 10794 10796 10797 10800 10802 10805 10808 10810 10813 10818 10821 10825 10829 10833 10838 10844 10850 10856 10861 10864 10866 10869 10874 10878 10883 10889 10895 10900 10905
10807 10807 10805 10804 10803 10802 10801 10801 10801 10799 10798 10797 10795 10793 10792 10791 10791 10790 10788 10784 10782 10780 10777 10775 10774 10772 10772 10774 10775 10775 10775 10775 10776 10775 10775 10775 10777 10777 10778 10778 10777 10776 10777 10779 10780 10781 10782 10783 10783 10783 10782 10782 10782 10782 10782 10783 10784 10785 10787 10788 10790 10791 10794 10796 10799 10802 10804 10807 10812 10815 10819 10823 10827 10832 10838 10844 10850 10856 10860 10862 10865 10869 10874 10878 10885 10891 10896 10901
10804 10803 10802 10801 10800 10799 10798 10798 10797 10795 10794 10793 10792 10790 10789 10788 10788 10787 10784 10781 10779 10777 10774 10771 10770 10769 10768 10769 10771 10772 10772 10772 10772 10772 10772 10772 10773 10774 10775 10774 10774 10773 10773 10775 10777 10777 10778 10778 10779 10779 10779 10778 10778 10778 10778 10778 10779 10780 10781 10782 10783 10785 10787 10790 10793 10796 10799 10802 10805 10809 10812 10816 10820 10826 10832 10838 10845 10850 10855 10858 10860 10864 10870 10875 10881 10887 10892 10897
10800 10799 10798 10798 10797 10795 10795 10794 10792 10791 10791 10789 10788 10787 10786 10785 10785 10784 10781 10777 10775 10773 10770 10768 10767 10766 10765 10765 10767 10768 10768 10768 10769 10769 10769 10769 10770 10771 10771 10771 10771 10771 10770 10771 10772 10772 10774 10774 10774 10775 10776 10775 10775 10775 10775 10775 10775 10775 10775 10776 10777 10778 10780 10783 10786 10789 10792 10795 10799 10803 10806 10808 10813 10819 10826 10833 10839 10845 10849 10853 10856 10860 10866 10871 10877 10883 10888 10892
10796 10795 10794 10794 10794 10792 10791 10790 10788 10787 10787 10785 10785 10784 10782 10781 10781 10779 10776 10774 10773 10770 10767 10765 10764 10763 10762 10762 10763 10764 10765 10765 10766 10766 10765 10765 10766 10767 10768 10768 10768 10768 10768 10768 10768 10768 10769 10770 10770 10771 10772 10771 10771 10771 10770 10770 10770 10770 10770 10770 10771 10772 10773 10776 10778 10782 10785 10788 10792 10796 10799 10802 10806 10813 10820 10827 10833 10839 10843 10848 10852 10856 10861 10867 10873 10878 10884 10888
10792 10791 10790 10790 10790 10789 10787 10786 10785 10783 10782 10781 10781 10780 10779 10777 10776 10774 10772 10771 10770 10767 10764 10763 10762 10760 10760 10760 10760 10761 10761 10761 10762 10762 10762 10762 10763 10763 10764 10765 10765 10764 10764 10765 10765 10765 10766 10766 10767 10767 10768 10767 10767 10766 10765 10765 10766 10765 10765 10765 10765 10766 10767 10768 10771 10773 10776 10780 10784 10788 10792 10796 10800 10805 10813 10820 10827 10833 10838 10842 10847 10852 10857 10863 10868 10873 10879 10884
10788 10787 10786 10785 10785 10785 10783 10782 10781 10780 10779 10778 10777 10776 10775 10773 10771 10770 10768 10767 10767 10764 10761 10760 10759 10758 10758 10757 10757 10757 10758 10758 10759 10759 10759 10760 10760 10760 10761 10762 10762 10761 10761 10762 10763 10763 10763 10763 10763 10763 10763 10763 10762 10762 10761 10761 10760 10760 10760 10759 10759 10760 10761 10762 10764 10766 10768 10772 10776 10780 10785 10790 10793 10797 10805 10813 10820 10826 10832 10837 10842 10847 10852 10858 10864 10869 10875 10880
10783 10783 10781 10780 10780 10780 10779 10778 10777 10776 10775 10774 10773 10772 10771 10768 10767 10766 10764 10763 10764 10761 10757 10756 10757 10756 10755 10753 10753 10754 10755 10755 10755 10756 10756 10757 10757 10757 10758 10759 10759 10759 10759 10760 10760 10761 10761 10761 10761 10760 10759 10759 10758 10758 10757 10757 10756 10755 10755 10754 10754 10754 10755 10756 10757 10759 10761 10765 10768 10773 10779 10783 10785 10789 10797 10805 10812 10818 10825 10830 10837 10842 10847 10853 10859 10865 10871 10875
10779 10778 10777 10775 10774 10774 10775 10774 10772 10772 10771 10770 10769 10768 10766 10764 10763 10762 10760 10759 10760 10758 10754 10752 10753 10752 10751 10750 10750 10751 10752 10752 10753 10753 10753 10754 10755 10755 10756 10756 10756 10756 10757 10757 10758 10758 10758 10758 10758 10757 10756 10755 10754 10754 10753 10753 10752 10751 10750 10750 10750 10749 10749 10750 10751 10752 10755 10758 10761 10766 10771 10775 10778 10782 10789 10797 10805 10811 10818 10824 10830 10837 10842 10848 10855 10861 10866 10871
10774 10773 10772 10771 10770 10769 10769 10769 10768 10767 10767 10766 10764 10763 10761 10759 10758 10757 10756 10754 10755 10754 10751 10748 10749 10748 10748 10747 10746 10747 10749 10749 10750 10750 10750 10751 10752 10753 10753 10753 10753 10754 10754 10754 10755 10756 10755 10755 10755 10754 10753 10752 10750 10750 10749 10749 10748 10747 10746 10746 10746 10745 10744 10745 10745 10746 10748 10751 10754 10759 10763 10767 10771 10776 10781 10789 10797 10804 10812 10818 10824 10831 10837 10843 10850 10857 10862 10866
10768 10768 10767 10766 10765 10764 10764 10764 10763 10763 10762 10761 10759 10758 10757 10755 10753 10753 10752 10750 10750 10750 10747 10745 10744 10744 10744 10743 10743 10743 10744 10746 10746 10747 10747 10748 10750 10750 10750 10750 10751 10751 10751 10751 10752 10753 10753 10753 10752 10751 10750 10749 10747 10746 10746 10745 10744 10743 10743 10742 10741 10740 10740 10739 10739 10740 10741 10744 10747 10751 10755 10760 10765 10770 10775 10782 10790 10797 10805 10812 10819 10826 10833 10839 10845 10852 10858 10862
10763 10762 10761 10761 10760 10759 10759 10759 10758 10758 10757 10756 10755 10753 10751 10750 10748 10748 10748 10747 10745 10745 10744 10741 10741 10740 10740 10740 10739 10739 10740 10742 10742 10743 10744 10746 10747 10748 10748 10748 10749 10749 10749 10748 10749 10749 10750 10749 10749 10748 10747 10745 10744 10743 10742 10741 10740 10740 10739 10738 10737 10736 10734 10733 10733 10734 10735 10737 10740 10743 10747 10752 10757 10763 10768 10775 10783 10790 10798 10805 10813 10820 10827 10834 10840 10847 10853 10858